FW6905 Weather Reports


time (UTC)temp
C
wind
direction
speed
KPH
gust
KPH
rain 1hr
cm
rain 24hr
cm
rain mn
cm
humidity
%
barometer
mb
20211025040005 11 5 16.1 24.1 0.00 0.00 0.00 31 1026.8
20211025035505 11 15 16.1 29.0 0.00 0.00 0.00 31 1026.8
20211025035005 11 22 12.9 29.0 0.00 0.00 0.00 31 1026.8
20211025034505 11 29 8.0 17.7 0.00 0.00 0.00 31 1027.8
20211025034004 11 22 8.0 17.7 0.00 0.00 0.00 31 1027.8
20211025033505 10 28 6.4 16.1 0.00 0.00 0.00 32 1027.8
20211025033005 10 42 8.0 16.1 0.00 0.00 0.00 32 1027.8
20211025032505 11 34 8.0 20.9 0.00 0.00 0.00 32 1027.8
20211025032005 11 38 8.0 20.9 0.00 0.00 0.00 32 1027.8
20211025031504 10 41 6.4 16.1 0.00 0.00 0.00 32 1027.8
20211025031005 11 25 4.8 25.7 0.00 0.00 0.00 32 1027.8
20211025030504 11 26 16.1 25.7 0.00 0.00 0.00 31 1027.8
20211025030005 11 27 9.7 20.9 0.00 0.00 0.00 31 1027.8
20211025025504 11 11 8.0 20.9 0.00 0.00 0.00 31 1027.8
20211025025005 11 11 14.5 20.9 0.00 0.00 0.00 31 1027.8
20211025024504 11 33 9.7 19.3 0.00 0.00 0.00 31 1027.8
20211025024005 11 42 9.7 17.7 0.00 0.00 0.00 32 1027.8
20211025023506 11 33 8.0 20.9 0.00 0.00 0.00 32 1027.8
20211025023005 11 36 8.0 20.9 0.00 0.00 0.00 32 1027.8
20211025022505 11 34 9.7 17.7 0.00 0.00 0.00 32 1027.8
20211025022005 11 38 8.0 16.1 0.00 0.00 0.00 32 1027.8
20211025021504 11 26 6.4 24.1 0.00 0.00 0.00 32 1026.8
20211025021005 11 21 9.7 24.1 0.00 0.00 0.00 31 1026.8
20211025020506 11 39 8.0 16.1 0.00 0.00 0.00 32 1026.8
20211025020005 11 53 6.4 16.1 0.00 0.00 0.00 32 1027.8
20211025015505 11 49 6.4 12.9 0.00 0.00 0.00 31 1027.8
20211025015005 11 37 6.4 20.9 0.00 0.00 0.00 31 1027.8
20211025014505 11 40 11.3 20.9 0.00 0.00 0.00 31 1027.8
20211025014005 11 38 9.7 17.7 0.00 0.00 0.00 31 1027.8
20211025013505 11 24 8.0 27.4 0.00 0.00 0.00 31 1027.8
20211025013005 11 31 6.4 27.4 0.00 0.00 0.00 31 1027.8
20211025012505 11 46 12.9 22.5 0.00 0.00 0.00 31 1027.8
20211025012005 11 40 14.5 24.1 0.00 0.00 0.00 31 1027.8
20211025011504 11 34 8.0 24.1 0.00 0.00 0.00 31 1027.8
20211025011005 11 35 12.9 20.9 0.00 0.00 0.00 31 1027.8
20211025010505 11 24 6.4 27.4 0.00 0.00 0.00 31 1027.8
20211025010005 11 26 9.7 27.4 0.00 0.00 0.00 31 1028.8
20211025005505 11 25 12.9 25.7 0.00 0.00 0.00 31 1028.8
20211025005004 11 28 16.1 25.7 0.00 0.00 0.00 31 1028.8
20211025004504 11 44 17.7 24.1 0.00 0.00 0.00 31 1028.8
20211025004005 11 43 11.3 20.9 0.00 0.00 0.00 31 1028.8
20211025003504 11 38 11.3 20.9 0.00 0.00 0.00 31 1028.8
20211025003005 11 44 14.5 20.9 0.00 0.00 0.00 31 1028.8
20211025002505 11 45 11.3 25.7 0.00 0.00 0.00 31 1028.8
20211025002004 11 45 6.4 25.7 0.00 0.00 0.00 31 1028.8
20211025001505 11 57 12.9 20.9 0.00 0.00 0.00 31 1028.8
20211025001005 11 43 9.7 20.9 0.00 0.00 0.00 32 1028.8
20211025000504 11 23 11.3 24.1 0.00 0.00 0.00 31 1028.8
20211025000005 11 30 9.7 24.1 0.00 0.00 0.00 31 1028.8
20211024235505 11 52 11.3 27.4 0.00 0.00 0.00 31 1028.8
20211024235005 11 58 14.5 27.4 0.00 0.00 0.00 32 1028.8
20211024234505 11 61 12.9 20.9 0.00 0.00 0.00 32 1028.8
20211024234004 11 54 14.5 24.1 0.00 0.00 0.00 32 1028.8
20211024233505 11 39 8.0 24.1 0.00 0.00 0.00 32 1028.8
20211024233005 11 38 11.3 17.7 0.00 0.00 0.00 32 1028.8
20211024232504 11 52 11.3 16.1 0.00 0.00 0.00 32 1028.8
20211024232005 11 53 11.3 17.7 0.00 0.00 0.00 32 1028.8
20211024231504 11 52 9.7 17.7 0.00 0.00 0.00 32 1028.8
20211024231004 11 59 4.8 14.5 0.00 0.00 0.00 32 1028.8
20211024230505 11 52 11.3 20.9 0.00 0.00 0.00 32 1028.8
20211024230005 11 52 12.9 20.9 0.00 0.00 0.00 32 1028.8
20211024225505 11 57 14.5 20.9 0.00 0.00 0.00 31 1028.8
20211024225004 11 55 8.0 20.9 0.00 0.00 0.00 32 1028.8
20211024224504 11 58 12.9 20.9 0.00 0.00 0.00 32 1028.8
20211024224005 11 62 16.1 20.9 0.00 0.00 0.00 32 1028.8
20211024223504 11 67 14.5 20.9 0.00 0.00 0.00 32 1028.8
20211024223004 11 51 11.3 25.7 0.00 0.00 0.00 32 1029.8
20211024222505 11 50 9.7 25.7 0.00 0.00 0.00 32 1029.8
20211024222005 11 48 14.5 25.7 0.00 0.00 0.00 32 1029.8
20211024221505 11 42 16.1 25.7 0.00 0.00 0.00 32 1028.8
20211024221006 11 40 12.9 25.7 0.00 0.00 0.00 31 1028.8
20211024220506 11 48 14.5 27.4 0.00 0.00 0.00 32 1028.8
20211024220008 11 57 14.5 29.0 0.00 0.00 0.00 32 1029.8
20211024215506 11 49 17.7 29.0 0.00 0.00 0.00 32 1029.8
20211024215006 11 46 16.1 27.4 0.00 0.00 0.00 32 1029.8
20211024214506 11 48 12.9 27.4 0.00 0.00 0.00 32 1029.8
20211024214006 11 46 14.5 25.7 0.00 0.00 0.00 32 1029.8
20211024213506 11 48 20.9 27.4 0.00 0.00 0.00 32 1029.8
20211024213006 11 48 9.7 27.4 0.00 0.00 0.00 32 1029.8
20211024212506 11 52 9.7 24.1 0.00 0.00 0.00 32 1029.8
20211024212006 11 53 17.7 27.4 0.00 0.00 0.00 32 1029.8
20211024211506 11 43 19.3 27.4 0.00 0.00 0.00 32 1029.8
20211024211006 11 52 12.9 17.7 0.00 0.00 0.00 32 1029.8
20211024210506 11 54 9.7 19.3 0.00 0.00 0.00 32 1029.8
20211024210006 11 48 6.4 20.9 0.00 0.00 0.00 32 1029.8
20211024205506 11 52 16.1 20.9 0.00 0.00 0.00 32 1029.8
20211024205006 11 37 14.5 20.9 0.00 0.00 0.00 32 1029.8
20211024204506 11 28 9.7 20.9 0.00 0.00 0.00 32 1029.8
20211024204006 11 46 8.0 20.9 0.00 0.00 0.00 32 1029.8
20211024203505 11 50 9.7 20.9 0.00 0.00 0.00 32 1029.8
20211024203006 11 51 9.7 19.3 0.00 0.00 0.00 32 1030.9
20211024202505 11 44 4.8 19.3 0.00 0.00 0.00 32 1030.9
20211024202006 11 51 14.5 17.7 0.00 0.00 0.00 32 1030.9
20211024201506 12 66 12.9 20.9 0.00 0.00 0.00 31 1029.8
20211024201006 11 49 12.9 20.9 0.00 0.00 0.00 32 1029.8
20211024200506 12 44 8.0 20.9 0.00 0.00 0.00 31 1029.8
20211024200006 12 45 9.7 24.1 0.00 0.00 0.00 31 1029.8
20211024195506 12 38 12.9 25.7 0.00 0.00 0.00 31 1029.8
20211024195006 12 36 14.5 25.7 0.00 0.00 0.00 32 1029.8
20211024194506 12 36 9.7 24.1 0.00 0.00 0.00 31 1029.8
20211024194006 12 41 12.9 22.5 0.00 0.00 0.00 31 1029.8
20211024193506 12 44 11.3 22.5 0.00 0.00 0.00 32 1029.8
20211024193006 12 44 9.7 22.5 0.00 0.00 0.00 32 1029.8
20211024192505 12 49 16.1 24.1 0.00 0.00 0.00 32 1029.8
20211024192006 12 61 16.1 24.1 0.00 0.00 0.00 32 1029.8
20211024191506 12 69 12.9 20.9 0.00 0.00 0.00 33 1028.8
20211024191006 12 50 9.7 27.4 0.00 0.00 0.00 33 1028.8
20211024190506 12 35 12.9 27.4 0.00 0.00 0.00 32 1028.8
20211024190006 12 38 14.5 25.7 0.00 0.00 0.00 33 1029.8
20211024185506 12 37 6.4 24.1 0.00 0.00 0.00 33 1029.8
20211024185006 12 39 11.3 30.6 0.00 0.00 0.00 32 1029.8
20211024184506 12 54 9.7 30.6 0.00 0.00 0.00 33 1029.8
20211024184006 12 59 6.4 19.3 0.00 0.00 0.00 33 1029.8
20211024183505 12 53 11.3 24.1 0.00 0.00 0.00 33 1029.8
20211024183006 12 45 6.4 24.1 0.00 0.00 0.00 33 1028.8
20211024182506 12 30 11.3 20.9 0.00 0.00 0.00 33 1028.8
20211024182006 12 39 14.5 20.9 0.00 0.00 0.00 33 1028.8
20211024181506 12 41 6.4 17.7 0.00 0.00 0.00 33 1029.8
20211024181006 12 9 9.7 20.9 0.00 0.00 0.00 32 1029.8
20211024180506 12 24 8.0 20.9 0.00 0.00 0.00 32 1029.8
20211024180006 12 42 11.3 20.9 0.00 0.00 0.00 33 1029.8
20211024175506 12 44 11.3 25.7 0.00 0.00 0.00 33 1029.8
20211024175006 12 48 9.7 25.7 0.00 0.00 0.00 32 1029.8
20211024174506 12 34 6.4 17.7 0.00 0.00 0.00 33 1029.8
20211024174006 12 35 11.3 17.7 0.00 0.00 0.00 33 1029.8
20211024173505 12 40 6.4 19.3 0.00 0.00 0.00 33 1029.8
20211024173006 12 45 9.7 19.3 0.00 0.00 0.00 33 1029.8
20211024172506 12 44 9.7 19.3 0.00 0.00 0.00 33 1029.8
20211024172006 12 26 11.3 19.3 0.00 0.00 0.00 33 1029.8
20211024171506 12 32 9.7 17.7 0.00 0.00 0.00 32 1029.8
20211024171006 12 35 9.7 17.7 0.00 0.00 0.00 32 1029.8
20211024170505 12 36 6.4 17.7 0.00 0.00 0.00 33 1029.8
20211024170006 12 44 3.2 16.1 0.00 0.00 0.00 33 1029.8
20211024165506 12 51 4.8 20.9 0.00 0.00 0.00 33 1029.8
20211024165006 12 35 4.8 20.9 0.00 0.00 0.00 32 1029.8
20211024164507 13 32 9.7 20.9 0.00 0.00 0.00 32 1028.8
20211024164006 13 47 6.4 20.9 0.00 0.00 0.00 32 1028.8
20211024163505 12 52 9.7 16.1 0.00 0.00 0.00 32 1028.8
20211024163006 12 40 4.8 17.7 0.00 0.00 0.00 32 1029.8
20211024162506 13 34 8.0 17.7 0.00 0.00 0.00 32 1029.8
20211024162006 12 60 6.4 11.3 0.00 0.00 0.00 33 1029.8
20211024161506 12 97 3.2 12.9 0.00 0.00 0.00 33 1028.8
20211024161006 12 90 1.6 12.9 0.00 0.00 0.00 33 1028.8
20211024160506 13 84 9.7 11.3 0.00 0.00 0.00 32 1028.8
20211024160006 13 95 4.8 11.3 0.00 0.00 0.00 32 1028.8
20211024155505 13 121 1.6 8.0 0.00 0.00 0.00 32 1028.8
20211024155006 13 93 4.8 16.1 0.00 0.00 0.00 31 1028.8
20211024154505 13 51 6.4 16.1 0.00 0.00 0.00 30 1029.8
20211024154006 13 56 4.8 12.9 0.00 0.00 0.00 30 1029.8
20211024153506 13 69 6.4 12.9 0.00 0.00 0.00 30 1029.8
20211024153006 13 60 8.0 11.3 0.00 0.00 0.00 30 1029.8
20211024152506 14 45 9.7 14.5 0.00 0.00 0.00 30 1029.8
20211024152006 14 51 8.0 16.1 0.00 0.00 0.00 30 1029.8
20211024151506 14 61 11.3 16.1 0.00 0.00 0.00 29 1029.8
20211024151005 14 60 9.7 19.3 0.00 0.00 0.00 29 1029.8
20211024150506 14 53 6.4 19.3 0.00 0.00 0.00 29 1029.8
20211024150006 15 48 12.9 16.1 0.00 0.00 0.00 29 1029.8
20211024145506 15 44 9.7 16.1 0.00 0.00 0.00 29 1029.8
20211024145006 15 55 8.0 20.9 0.00 0.00 0.00 29 1029.8
20211024144505 15 62 8.0 22.5 0.00 0.00 0.00 29 1029.8
20211024144006 15 59 12.9 22.5 0.00 0.00 0.00 29 1029.8
20211024143506 15 62 4.8 16.1 0.00 0.00 0.00 29 1029.8
20211024143006 15 54 11.3 22.5 0.00 0.00 0.00 27 1029.8
20211024142506 15 56 9.7 22.5 0.00 0.00 0.00 27 1029.8
20211024142006 15 63 4.8 24.1 0.00 0.00 0.00 29 1029.8
20211024141506 15 52 14.5 24.1 0.00 0.00 0.00 27 1029.8
20211024141005 15 59 9.7 20.9 0.00 0.00 0.00 29 1029.8
20211024140506 15 84 14.5 17.7 0.00 0.00 0.00 29 1029.8
20211024140006 15 81 11.3 17.7 0.00 0.00 0.00 29 1028.8
20211024135506 15 57 8.0 16.1 0.00 0.00 0.00 29 1028.8
20211024135006 15 54 9.7 19.3 0.00 0.00 0.00 27 1028.8
20211024134505 15 59 6.4 20.9 0.00 0.00 0.00 29 1029.8
20211024134006 15 61 16.1 20.9 0.00 0.00 0.00 27 1029.8
20211024133506 16 70 9.7 16.1 0.00 0.00 0.00 29 1029.8
20211024133005 16 89 6.4 17.7 0.00 0.00 0.00 29 1029.8
20211024132506 16 76 9.7 17.7 0.00 0.00 0.00 29 1029.8
20211024132005 15 66 9.7 17.7 0.00 0.00 0.00 27 1029.8
20211024131506 15 71 9.7 17.7 0.00 0.00 0.00 29 1029.8
20211024131005 16 54 6.4 17.7 0.00 0.00 0.00 29 1029.8
20211024130505 15 56 12.9 27.4 0.00 0.00 0.00 29 1029.8
20211024130006 15 61 17.7 27.4 0.00 0.00 0.00 27 1030.9
20211024125506 16 66 9.7 17.7 0.00 0.00 0.00 29 1030.9
20211024125005 16 71 6.4 17.7 0.00 0.00 0.00 29 1030.9
20211024124506 16 78 14.5 19.3 0.00 0.00 0.00 26 1030.9
20211024124006 16 78 8.0 19.3 0.00 0.00 0.00 29 1030.9
20211024123505 16 73 9.7 16.1 0.00 0.00 0.00 29 1030.9
20211024123006 16 65 14.5 24.1 0.00 0.00 0.00 26 1030.9
20211024122506 16 59 14.5 24.1 0.00 0.00 0.00 27 1030.9
20211024122006 16 56 9.7 24.1 0.00 0.00 0.00 26 1030.9
20211024121506 16 66 14.5 22.5 0.00 0.00 0.00 26 1030.9
20211024121006 16 79 14.5 24.1 0.00 0.00 0.00 26 1030.9
20211024120506 16 77 17.7 25.7 0.00 0.00 0.00 26 1030.9
20211024120006 16 71 11.3 25.7 0.00 0.00 0.00 26 1031.9
20211024115505 16 63 16.1 20.9 0.00 0.00 0.00 29 1031.9
20211024115006 16 58 8.0 20.9 0.00 0.00 0.00 26 1031.9
20211024114505 16 67 17.7 24.1 0.00 0.00 0.00 26 1031.9
20211024114006 16 76 9.7 24.1 0.00 0.00 0.00 27 1031.9
20211024113506 16 87 9.7 17.7 0.00 0.00 0.00 29 1031.9
20211024113006 16 93 9.7 20.9 0.00 0.00 0.00 26 1031.9
20211024112506 16 89 6.4 20.9 0.00 0.00 0.00 29 1031.9
20211024112006 16 74 14.5 20.9 0.00 0.00 0.00 29 1031.9
20211024111506 16 75 9.7 20.9 0.00 0.00 0.00 29 1030.9
20211024111006 16 82 11.3 19.3 0.00 0.00 0.00 29 1030.9
20211024110505 15 71 9.7 20.9 0.00 0.00 0.00 29 1030.9
20211024110006 15 64 11.3 20.9 0.00 0.00 0.00 29 1031.9
20211024105506 15 63 12.9 20.9 0.00 0.00 0.00 29 1031.9
20211024105006 15 59 12.9 20.9 0.00 0.00 0.00 29 1031.9
20211024104505 15 61 9.7 16.1 0.00 0.00 0.00 27 1031.9
20211024104006 15 73 9.7 19.3 0.00 0.00 0.00 29 1031.9
20211024103505 15 64 14.5 19.3 0.00 0.00 0.00 29 1031.9
20211024103005 15 51 11.3 20.9 0.00 0.00 0.00 29 1031.9
20211024102506 15 50 9.7 20.9 0.00 0.00 0.00 29 1031.9
20211024102005 15 60 12.9 20.9 0.00 0.00 0.00 29 1031.9
20211024101506 15 58 11.3 20.9 0.00 0.00 0.00 30 1031.9
20211024101006 15 54 11.3 20.9 0.00 0.00 0.00 29 1031.9
20211024100506 15 67 6.4 19.3 0.00 0.00 0.00 29 1031.9
20211024100006 15 72 12.9 19.3 0.00 0.00 0.00 29 1031.9
20211024095505 15 62 9.7 17.7 0.00 0.00 0.00 29 1031.9
20211024095005 15 69 9.7 20.9 0.00 0.00 0.00 29 1031.9
20211024094506 15 75 14.5 20.9 0.00 0.00 0.00 29 1031.9
20211024094005 15 69 8.0 19.3 0.00 0.00 0.00 30 1031.9
20211024093505 15 95 9.7 20.9 0.00 0.00 0.00 29 1031.9
20211024093006 15 96 9.7 20.9 0.00 0.00 0.00 30 1031.9
20211024092506 15 85 9.7 20.9 0.00 0.00 0.00 31 1031.9
20211024092005 14 90 11.3 20.9 0.00 0.00 0.00 31 1031.9
20211024091506 14 89 9.7 20.9 0.00 0.00 0.00 31 1030.9
20211024091005 14 65 14.5 22.5 0.00 0.00 0.00 30 1030.9
20211024090508 14 53 8.0 22.5 0.00 0.00 0.00 31 1030.9
20211024090006 14 59 12.9 19.3 0.00 0.00 0.00 31 1031.9
20211024085506 14 66 9.7 16.1 0.00 0.00 0.00 31 1031.9
20211024085005 13 52 4.8 20.9 0.00 0.00 0.00 31 1031.9
20211024084506 13 44 9.7 24.1 0.00 0.00 0.00 31 1031.9
20211024084006 13 55 12.9 24.1 0.00 0.00 0.00 31 1031.9
20211024083505 13 69 9.7 24.1 0.00 0.00 0.00 31 1031.9
20211024083005 13 64 9.7 19.3 0.00 0.00 0.00 32 1031.9
20211024082506 13 51 12.9 19.3 0.00 0.00 0.00 32 1031.9
20211024082006 13 45 8.0 22.5 0.00 0.00 0.00 32 1031.9
20211024081505 13 46 8.0 22.5 0.00 0.00 0.00 32 1031.9
20211024081005 13 46 17.7 24.1 0.00 0.00 0.00 32 1031.9
20211024080505 13 52 9.7 24.1 0.00 0.00 0.00 31 1031.9
20211024080005 13 53 12.9 20.9 0.00 0.00 0.00 33 1032.9
20211024075506 13 57 9.7 22.5 0.00 0.00 0.00 33 1032.9
20211024075005 13 53 9.7 22.5 0.00 0.00 0.00 33 1032.9
20211024074505 13 52 11.3 20.9 0.00 0.00 0.00 34 1031.9
20211024074006 12 69 16.1 20.9 0.00 0.00 0.00 33 1031.9
20211024073505 12 56 9.7 25.7 0.00 0.00 0.00 34 1031.9
20211024073006 12 54 8.0 25.7 0.00 0.00 0.00 34 1030.9
20211024072505 12 52 14.5 22.5 0.00 0.00 0.00 36 1030.9
20211024072006 12 24 4.8 27.4 0.00 0.00 0.00 36 1030.9
20211024071506 12 26 6.4 27.4 0.00 0.00 0.00 36 1030.9
20211024071005 12 27 11.3 27.4 0.00 0.00 0.00 35 1030.9
20211024070505 12 44 4.8 25.7 0.00 0.00 0.00 36 1030.9
20211024070005 12 45 14.5 25.7 0.00 0.00 0.00 37 1030.9
20211024065505 12 55 14.5 24.1 0.00 0.00 0.00 36 1030.9
20211024065006 11 63 9.7 24.1 0.00 0.00 0.00 40 1030.9
20211024064505 11 56 14.5 24.1 0.00 0.00 0.00 39 1030.9
20211024064006 11 48 8.0 12.9 0.00 0.00 0.00 41 1030.9
20211024063506 11 41 6.4 14.5 0.00 0.00 0.00 41 1030.9
20211024063006 11 30 6.4 14.5 0.00 0.00 0.00 40 1030.9
20211024062506 11 33 4.8 19.3 0.00 0.00 0.00 41 1030.9
20211024062057 11 47 6.4 19.3 0.00 0.00 0.00 40 1030.9
20211024061507 11 46 8.0 22.5 0.00 0.00 0.00 40 1030.9
20211024061005 11 40 14.5 22.5 0.00 0.00 0.00 41 1030.9
20211024060505 11 36 6.4 19.3 0.00 0.00 0.00 41 1030.9
20211024060006 11 41 8.0 19.3 0.00 0.00 0.00 41 1029.8
20211024055505 11 33 9.7 27.4 0.00 0.00 0.00 41 1029.8
20211024055005 11 24 9.7 27.4 0.00 0.00 0.00 40 1029.8
20211024054506 11 26 8.0 16.1 0.00 0.00 0.00 41 1029.8
20211024054006 11 38 11.3 16.1 0.00 0.00 0.00 41 1029.8
20211024053505 11 41 6.4 20.9 0.00 0.00 0.00 41 1029.8
20211024053005 11 51 11.3 20.9 0.00 0.00 0.00 41 1029.8
20211024052506 11 60 11.3 24.1 0.00 0.00 0.00 41 1029.8
20211024052005 11 48 17.7 24.1 0.00 0.00 0.00 41 1029.8
20211024051506 11 50 1.6 22.5 0.00 0.00 0.00 41 1029.8
20211024051006 11 51 3.2 22.5 0.00 0.00 0.00 41 1029.8
20211024050505 11 57 6.4 20.9 0.00 0.00 0.00 41 1029.8
20211024050006 11 48 11.3 27.4 0.00 0.00 0.00 41 1029.8
20211024045505 11 41 12.9 27.4 0.00 0.00 0.00 41 1029.8
20211024045005 11 48 6.4 19.3 0.00 0.00 0.00 41 1029.8
20211024044506 11 53 9.7 17.7 0.00 0.00 0.00 41 1029.8
20211024044005 11 54 8.0 17.7 0.00 0.00 0.00 41 1029.8
20211024043505 11 34 9.7 27.4 0.00 0.00 0.00 41 1029.8
20211024043006 11 32 6.4 27.4 0.00 0.00 0.00 41 1029.8
20211024042505 11 48 12.9 20.9 0.00 0.00 0.00 40 1029.8
20211024042005 11 53 11.3 22.5 0.00 0.00 0.00 41 1029.8
20211024041505 11 41 8.0 27.4 0.00 0.00 0.00 41 1028.8
20211024041005 11 41 11.3 27.4 0.00 0.00 0.00 41 1028.8
20211024040506 11 41 14.5 25.7 0.00 0.00 0.00 42 1028.8